Location: Newark
(41.6500°N, 71.4833°W)
Time: 04:35:25
(UTC+00:00)

Vanguard 1 - All Passes

Search period start: 23 January 2020 00:00
Search period end: 02 February 2020 00:00
Orbit: 651 x 3832 km, 34.2° (Epoch: 22 January)

Date Brightness Start Highest point End Pass type
(mag) Time Alt. Az. Time Alt. Az. Time Alt. Az.
23 Jan - 01:32:47 10° WSW 01:38:16 40° S 01:47:21 10° ESE visible
23 Jan - 03:52:54 10° WSW 03:59:26 24° SSW 04:09:19 10° SSE night (unlit)
23 Jan - 21:16:35 10° SSW 21:19:48 19° SSE 21:23:13 10° ESE daylight
23 Jan - 23:34:41 10° WSW 23:39:06 40° S 23:45:25 10° ESE visible
24 Jan - 01:53:42 10° WSW 01:59:13 35° SSW 02:08:09 10° SE visible
24 Jan - 04:14:47 10° WSW 04:20:33 18° SSW 04:28:32 10° S night (unlit)
24 Jan - 21:36:50 10° SW 21:40:30 25° SSE 21:44:31 10° ESE daylight
24 Jan - 23:55:27 10° WSW 23:59:55 40° S 00:06:28 10° ESE visible
25 Jan - 02:14:46 10° WSW 02:20:12 29° SSW 02:28:40 10° SE visible
25 Jan - 04:37:51 10° SW 04:41:42 13° SSW 04:46:19 10° S night (unlit)
25 Jan - 19:40:50 10° S 19:41:53 11° SSE 19:42:55 10° SE daylight
25 Jan - 21:57:20 10° SW 22:01:14 30° SSE 22:05:39 10° ESE daylight
26 Jan - 00:16:16 10° WSW 00:20:47 37° S 00:27:25 10° ESE visible
26 Jan - 02:36:03 10° WSW 02:41:12 23° SSW 02:48:47 10° SSE visible
26 Jan - 19:59:43 10° SSW 20:02:39 16° SSE 20:05:22 10° ESE daylight
26 Jan - 22:17:59 10° WSW 22:22:00 34° S 22:26:41 10° ESE visible
27 Jan - 00:37:10 10° WSW 00:41:39 32° S 00:48:13 10° SE visible
27 Jan - 02:57:45 10° WSW 03:02:15 17° SSW 03:08:18 10° SSE night (unlit)
27 Jan - 20:19:44 10° SSW 20:23:25 21° SSE 20:26:47 10° ESE daylight
27 Jan - 22:38:44 10° WSW 22:42:47 35° S 22:47:39 10° ESE visible
28 Jan - 00:58:10 10° WSW 01:02:33 27° SSW 01:08:49 10° SE visible
28 Jan - 03:20:34 10° SW 03:23:19 12° SSW 03:26:30 10° S night (unlit)
28 Jan - 18:24:16 10° SSE 18:24:27 10° SSE 18:24:37 10° SSE daylight
28 Jan - 20:40:08 10° SW 20:44:11 26° SSE 20:47:55 10° ESE daylight
28 Jan - 22:59:33 10° WSW 23:03:35 34° S 23:08:33 10° ESE visible
29 Jan - 01:19:22 10° WSW 01:23:28 21° SSW 01:29:04 10° SSE visible
29 Jan - 18:41:58 10° SSW 18:45:20 15° SSE 18:48:08 10° SE daylight
29 Jan - 21:00:45 10° SW 21:04:58 31° S 21:08:55 10° ESE daylight
29 Jan - 23:20:27 10° WSW 23:24:24 31° S 23:29:21 10° SE visible
30 Jan - 01:40:58 10° WSW 01:44:24 16° SSW 01:48:47 10° SSE visible
30 Jan - 19:01:47 10° SSW 19:06:11 20° SSE 19:09:41 10° ESE daylight
30 Jan - 21:21:31 10° WSW 21:25:45 33° S 21:29:51 10° ESE daylight
30 Jan - 23:41:26 10° WSW 23:45:13 26° SSW 23:49:58 10° SE visible
31 Jan - 02:03:47 10° SW 02:05:22 11° SSW 02:07:06 10° S visible
31 Jan - 17:05:07 10° S 17:06:46 11° SSE 17:08:17 10° SE daylight
31 Jan - 19:22:05 10° SW 19:27:02 26° SSE 19:30:52 10° ESE daylight
31 Jan - 21:42:21 10° WSW 21:46:32 34° S 21:50:41 10° ESE daylight
01 Feb - 00:02:35 10° WSW 00:06:03 20° SSW 00:10:18 10° SSE visible
01 Feb - 17:23:12 10° SSW 17:27:45 16° SSE 17:31:17 10° SE daylight
01 Feb - 19:42:41 10° SW 19:47:52 31° S 19:51:52 10° ESE daylight
01 Feb - 22:03:17 10° WSW 22:07:19 31° S 22:11:27 10° SE daylight
